Stations météo

Publicité
London/Heathrow Intl, Grande-Bretagne (3772): Température de l'air & dewpoint: 03.12.2019 12:00:00 - 09.12.2019 12:00:00 (GMT)London/Heathrow Intl, Grande-Bretagne (3772): Vitesse du vent & gusts: 03.12.2019 12:00:00 - 09.12.2019 12:00:00 (GMT)London/Heathrow Intl, Grande-Bretagne (3772): Direction du vent: 03.12.2019 12:00:00 - 09.12.2019 12:00:00 (GMT)London/Heathrow Intl, Grande-Bretagne (3772): reduced air pressure: 03.12.2019 12:00:00 - 09.12.2019 12:00:00 (GMT)London/Heathrow Intl, Grande-Bretagne (3772): visibility: 03.12.2019 12:00:00 - 09.12.2019 12:00:00 (GMT)London/Heathrow Intl, Grande-Bretagne (3772): Ensoleillement: 03.12.2019 12:00:00 - 09.12.2019 12:00:00 (GMT)London/Heathrow Intl, Grande-Bretagne (3772): Quantités de précipitations: 03.12.2019 12:00:00 - 09.12.2019 12:00:00 (GMT)
Date & Time tt [°C] td [°C] ff [km/h] ff [knt] fx [km/h] fx [knt] dd ppp [hPa] vv [km] sd [min] rr [mm]
09.12.2019 12:00:00 9,5 1,6 29 16 52 28 NW 1012,1 10 60 0,0
09.12.2019 11:00:00 9,2 1,1 29 16 59 32 NW 1010,3 35 54 0,0
09.12.2019 10:00:00 8,8 2,5 28 15 - - NW 1008,4 35 18 0,0
09.12.2019 09:00:00 8,4 2,7 22 12 52 28 NW 1005,9 10 0 0,0
09.12.2019 08:00:00 8,2 3,0 26 14 54 29 NW 1002,8 10 0 0,0
09.12.2019 07:00:00 8,6 4,5 26 14 - - NW 1000,2 10 0 0,0
09.12.2019 06:00:00 8,3 5,5 28 15 50 27 NW 997,4 4,7 0 0,0
09.12.2019 05:00:00 8,8 5,2 26 14 - - WNW 994,3 10 0 0,0
09.12.2019 04:00:00 8,1 4,5 26 14 - - W 992,6 10 0 0,0
09.12.2019 03:00:00 7,2 3,9 26 14 - - W 992,7 10 0 0,0
09.12.2019 02:00:00 7,7 3,5 28 15 50 27 W 992,1 45 0 0,0
09.12.2019 01:00:00 7,8 5,1 31 17 55 30 W 991,0 10 0 0,0
09.12.2019 00:00:00 7,4 4,3 18 10 - - SSW 991,1 10 - 0,0
08.12.2019 23:00:00 7,1 3,6 24 13 50 27 SW 992,7 28 0 0,0
08.12.2019 22:00:00 6,8 2,7 29 16 50 27 SW 994,4 10 0 0,0
08.12.2019 21:00:00 6,8 2,4 29 16 52 28 SW 995,9 10 0 0,0
08.12.2019 20:00:00 6,9 2,4 29 16 54 29 WSW 996,6 10 0 0,0
08.12.2019 19:00:00 7,0 3,0 29 16 50 27 SW 997,3 10 0 0,0
08.12.2019 18:00:00 7,2 3,6 26 14 48 26 WSW 997,9 10 0 0,0
08.12.2019 17:00:00 6,7 3,5 26 14 - - WSW 998,6 10 0 0,0
08.12.2019 16:00:00 7,0 3,3 28 15 78 42 SW 999,1 45 0 0,0
08.12.2019 15:00:00 9,1 4,2 29 16 57 31 WSW 999,3 10 0 0,0
08.12.2019 14:00:00 10,0 3,0 35 19 65 35 WSW 999,4 29 6 0,0
08.12.2019 13:00:00 10,5 3,9 39 21 63 34 WSW 1000,4 10 24 0,0
08.12.2019 12:00:00 10,4 4,2 42 23 67 36 WSW 1001,0 10 42 0,0
08.12.2019 11:00:00 10,3 5,1 35 19 57 31 WSW 1001,5 17 18 0,0
08.12.2019 10:00:00 10,3 5,6 29 16 52 28 WSW 1001,9 10 6 0,0
08.12.2019 09:00:00 9,9 5,6 31 17 59 32 WSW 1001,2 10 0 0,0
08.12.2019 08:00:00 9,6 5,9 31 17 63 34 WSW 1000,2 10 0 0,0
08.12.2019 07:00:00 10,2 6,0 34 18 59 32 WSW 1000,1 10 0 0,0
08.12.2019 06:00:00 11,0 6,9 41 22 67 36 W 999,7 30 0 0,0
08.12.2019 05:00:00 11,5 10,7 26 14 52 28 SW 999,3 8 0 0,0
08.12.2019 04:00:00 11,2 9,8 34 18 57 31 SSW 1000,0 22 0 0,0
08.12.2019 03:00:00 10,7 9,5 39 21 55 30 SSW 1000,9 35 0 1,2
08.12.2019 02:00:00 10,4 9,1 28 15 59 32 SSW 1002,6 6 0 0,8
08.12.2019 01:00:00 11,2 8,3 42 23 68 37 SSW 1003,6 23 0 0,0
08.12.2019 00:00:00 10,9 8,9 29 16 50 27 SSW 1005,5 10 - 0,0
07.12.2019 23:00:00 11,0 8,3 28 15 52 28 SW 1007,2 10 0 0,0
07.12.2019 22:00:00 10,7 7,8 28 15 - - SW 1008,8 10 0 0,0
07.12.2019 21:00:00 10,4 7,4 24 13 - - SW 1009,6 10 0 0,0
07.12.2019 20:00:00 10,3 7,1 21 11 - - SW 1010,8 10 0 0,0
07.12.2019 19:00:00 10,1 6,5 18 10 - - SW 1011,9 50 0 0,0
07.12.2019 18:00:00 9,9 6,0 22 12 - - SW 1012,6 10 0 0,0
07.12.2019 17:00:00 10,4 5,8 18 10 - - SW 1012,8 40 0 0,0
07.12.2019 16:00:00 10,6 5,5 22 12 - - WSW 1013,1 10 0 0,0
07.12.2019 15:00:00 10,7 5,8 18 10 - - WSW 1013,1 10 0 0,0
07.12.2019 14:00:00 10,8 6,0 22 12 - - SW 1013,4 35 18 0,0
07.12.2019 13:00:00 10,7 6,1 18 10 - - SW 1014,1 35 0 0,0
07.12.2019 12:00:00 10,5 6,3 21 11 - - WSW 1014,7 10 0 0,0
07.12.2019 11:00:00 9,8 6,6 21 11 - - WSW 1014,5 10 0 0,0
07.12.2019 10:00:00 9,2 6,0 15 8 - - SW 1014,8 30 0 0,0
07.12.2019 09:00:00 8,8 6,0 15 8 - - WSW 1014,4 10 0 0,0
07.12.2019 08:00:00 8,1 5,7 13 7 - - WSW 1014,2 10 0 0,0
07.12.2019 07:00:00 7,1 5,0 9 5 - - SW 1014,0 10 0 0,0
07.12.2019 06:00:00 7,0 5,1 13 7 - - WSW 1012,7 10 0 0,0
07.12.2019 05:00:00 7,4 5,5 13 7 - - W 1012,1 27 0 0,0
07.12.2019 04:00:00 8,7 5,4 18 10 - - W 1011,5 30 0 0,0
07.12.2019 03:00:00 8,9 5,8 16 9 - - W 1011,2 30 0 0,0
07.12.2019 02:00:00 8,9 5,7 16 9 - - WSW 1010,9 10 0 0,0
07.12.2019 01:00:00 8,7 6,0 22 12 - - W 1010,0 10 0 0,0
07.12.2019 00:00:00 8,5 6,2 18 10 50 27 W 1009,9 10 - 0,0
06.12.2019 23:00:00 7,9 5,8 21 11 - - WSW 1009,4 29 0 0,0
06.12.2019 22:00:00 8,0 5,8 21 11 - - W 1008,5 10 0 0,0
06.12.2019 21:00:00 9,3 5,9 18 10 - - W 1007,4 10 0 0,0
06.12.2019 20:00:00 9,9 6,9 21 11 - - W 1006,5 30 0 0,0
06.12.2019 19:00:00 9,8 7,1 22 12 - - W 1005,2 10 0 0,0
06.12.2019 18:00:00 10,3 7,4 28 15 - - W 1003,9 10 0 0,0
06.12.2019 17:00:00 10,8 8,3 29 16 50 27 W 1003,0 10 0 0,0
06.12.2019 16:00:00 11,0 9,1 35 19 63 34 W 1001,9 10 0 0,0
06.12.2019 15:00:00 11,2 9,7 28 15 50 27 WSW 1002,0 4,9 6 0,2
06.12.2019 14:00:00 12,9 8,6 34 18 55 30 WSW 1002,5 10 6 0,0
06.12.2019 13:00:00 13,5 10,4 34 18 50 27 WSW 1003,2 10 0 0,0
06.12.2019 12:00:00 13,1 11,1 29 16 46 25 SW 1003,6 10 0 0,0
06.12.2019 11:00:00 12,8 11,1 31 17 46 25 SW 1004,7 10 0 0,0
06.12.2019 10:00:00 12,5 11,4 28 15 - - SW 1005,4 10 0 0,0
06.12.2019 09:00:00 12,1 10,9 29 16 - - WSW 1005,9 10 0 0,0
06.12.2019 08:00:00 11,7 10,8 22 12 - - SW 1006,0 10 0 0,6
06.12.2019 07:00:00 11,3 10,5 21 11 - - SW 1007,0 10 0 2,0
06.12.2019 06:00:00 11,5 10,0 26 14 - - SW 1007,7 50 0 0,0
06.12.2019 05:00:00 11,2 9,9 24 13 - - SW 1008,6 10 0 0,2
06.12.2019 04:00:00 10,7 10,0 18 10 - - SW 1009,1 10 0 0,4
06.12.2019 03:00:00 10,7 9,7 24 13 - - SW 1009,8 55 0 0,2
06.12.2019 02:00:00 10,4 9,5 22 12 - - SW 1010,5 35 0 0,2
06.12.2019 01:00:00 10,0 9,1 22 12 - - SW 1010,9 10 0 0,2
06.12.2019 00:00:00 10,1 8,6 28 15 - - SW 1011,8 10 - 0,0
05.12.2019 23:00:00 10,0 7,7 24 13 - - SW 1012,6 10 0 0,0
05.12.2019 22:00:00 10,0 7,1 31 17 46 25 SW 1013,5 10 0 0,0
05.12.2019 21:00:00 9,9 6,5 24 13 46 25 SW 1014,3 10 0 0,0
05.12.2019 20:00:00 9,7 6,4 26 14 - - SW 1014,7 10 0 0,0
05.12.2019 19:00:00 9,5 6,4 26 14 - - SW 1015,0 30 0 0,0
05.12.2019 18:00:00 9,3 6,4 24 13 - - SW 1015,5 10 0 0,0
05.12.2019 17:00:00 8,9 6,4 24 13 - - SW 1016,2 10 0 0,0
05.12.2019 16:00:00 8,3 6,0 18 10 - - SW 1016,6 10 0 0,0
05.12.2019 15:00:00 8,4 5,8 18 10 - - SW 1017,5 10 0 0,0
05.12.2019 14:00:00 7,5 5,6 11 6 - - SSW 1018,5 15 12 0,0
05.12.2019 13:00:00 6,5 5,0 16 9 - - SW 1019,4 9 0 0,0
05.12.2019 12:00:00 6,0 4,6 15 8 - - SW 1020,3 9 18 0,0
05.12.2019 11:00:00 4,2 3,0 13 7 - - SW 1021,1 7 0 0,0
05.12.2019 10:00:00 3,9 3,1 9 5 - - SW 1021,2 5 0 0,0
05.12.2019 09:00:00 2,9 2,7 9 5 - - W 1021,5 4,5 0 0,2
05.12.2019 08:00:00 1,5 1,5 8 4 - - W 1021,6 4,0 0 0,0
05.12.2019 07:00:00 0,3 0,3 5 3 - - - 1021,5 3,5 0 0,0
05.12.2019 06:00:00 0,3 0,3 2 1 - - - 1021,4 3,6 0 0,0
05.12.2019 05:00:00 -0,2 -0,2 2 1 - - W 1021,1 2,3 0 0,0
05.12.2019 04:00:00 -0,9 -0,9 4 2 - - - 1021,5 0,1 0 0,0
05.12.2019 03:00:00 -0,9 -0,9 2 1 - - SSE 1021,3 0,1 0 0,0
05.12.2019 02:00:00 -0,9 -0,9 4 2 - - WSW 1021,3 0,1 0 0,0
05.12.2019 01:00:00 -0,7 -0,8 5 3 - - W 1021,5 0,1 0 0,0
05.12.2019 00:00:00 -0,2 -0,3 4 2 - - - 1021,5 0,1 - 0,0
04.12.2019 23:00:00 0,3 0,2 9 5 - - W 1021,6 0,1 0 0,0
04.12.2019 22:00:00 1,1 0,7 5 3 - - - 1020,9 0,1 0 0,0
04.12.2019 21:00:00 2,1 1,5 2 1 - - N 1020,7 3,5 0 0,0
04.12.2019 20:00:00 2,9 2,3 2 1 - - - 1020,9 6 0 0,0
04.12.2019 19:00:00 2,8 1,7 4 2 - - WNW 1020,7 7 0 0,0
04.12.2019 18:00:00 3,9 2,3 4 2 - - WNW 1020,3 8 0 0,0
04.12.2019 17:00:00 5,3 2,9 4 2 - - WNW 1020,1 17 0 0,0
04.12.2019 16:00:00 6,4 2,5 9 5 - - S 1019,4 10 0 0,0
04.12.2019 15:00:00 7,9 3,0 8 4 - - SSW 1019,5 25 48 0,0
04.12.2019 14:00:00 9,0 3,3 5 3 - - - 1019,6 10 54 0,0
04.12.2019 13:00:00 8,6 3,6 8 4 - - SSE 1020,1 10 60 0,0
04.12.2019 12:00:00 8,4 3,8 8 4 - - - 1020,4 10 60 0,0
04.12.2019 11:00:00 6,3 3,3 8 4 - - WSW 1021,1 10 54 0,0
04.12.2019 10:00:00 5,4 3,7 5 3 - - SE 1021,3 13 42 0,0
04.12.2019 09:00:00 1,8 1,4 2 1 - - NNE 1021,2 5 0 0,0
04.12.2019 08:00:00 0,7 0,2 4 2 - - - 1021,2 7 0 0,0
04.12.2019 07:00:00 2,0 1,8 2 1 - - - 1021,0 3,5 0 0,0
04.12.2019 06:00:00 0,4 -0,3 4 2 - - E 1021,0 5 0 0,0
04.12.2019 05:00:00 2,2 1,9 2 1 - - - 1021,1 6 0 0,0
04.12.2019 04:00:00 2,5 2,1 5 3 - - ESE 1021,6 6 0 0,0
04.12.2019 03:00:00 3,1 2,9 2 1 - - SSW 1022,5 5 0 0,0
04.12.2019 02:00:00 2,7 2,5 2 1 - - SSE 1022,9 5 0 0,0
04.12.2019 01:00:00 1,4 0,8 4 2 - - ESE 1023,1 6 0 0,0
04.12.2019 00:00:00 2,6 1,7 2 1 - - SSW 1023,6 6 - 0,0
03.12.2019 23:00:00 3,9 2,8 9 5 - - S 1024,0 14 0 0,0
03.12.2019 22:00:00 4,6 3,2 13 7 - - SSW 1024,2 10 0 0,0
03.12.2019 21:00:00 5,0 3,2 11 6 - - S 1024,5 19 0 0,0
03.12.2019 20:00:00 5,9 3,3 13 7 - - SSW 1025,0 10 0 0,0
03.12.2019 19:00:00 6,8 3,5 11 6 - - SSW 1025,2 10 0 0,0
03.12.2019 18:00:00 6,9 2,7 9 5 - - SW 1025,2 10 0 0,0
03.12.2019 17:00:00 7,1 2,5 11 6 - - SW 1025,5 10 0 0,0
03.12.2019 16:00:00 7,7 2,0 11 6 - - WSW 1025,5 10 0 0,0
03.12.2019 15:00:00 8,8 1,9 18 10 - - SW 1025,6 10 48 0,0
03.12.2019 14:00:00 9,6 3,1 13 7 - - WSW 1025,9 10 54 0,0
03.12.2019 13:00:00 9,3 2,8 16 9 - - WSW 1026,8 10 42 0,0
03.12.2019 12:00:00 7,9 3,4 9 5 - - WSW 1027,7 28 0 0,0

tt = Température de l'air
td = dewpoint
ff = Vitesse du vent
fx = gusts
dd = Direction du vent
ppp = reduced air pressure
vv = visibility
sd = Ensoleillement
rr = Quantités de précipitations

stations d'obs. à proximité